User: anonymous   Login
Location: Lancaster
(34.6980°N, 118.1360°W)
Time: 17:48:58
(UTC-07:00)
Language:

N. Korean satellite - Orbit

View from above orbital plane
View from above orbital plane
View from above satellite
View from above satellite

Ground track
Ground track

The orbit data is extracted from the following two-line orbital elements,

1 39026U 12072A   18196.46850434 +.00000995 +00000-0 +39741-4 0  9992
2 39026 097.2099 205.8724 0037910 220.7562 139.0840 15.26831359309910
Epoch (UTC): 15 July 2018 11:14:38
Eccentricity: 0.0037910
inclination: 97.2099°
perigee height: 459 km
apogee height: 511 km
right ascension of ascending node: 205.8724°
argument of perigee: 220.7562°
revolutions per day: 15.26831359
mean anomaly at epoch: 139.0840°
orbit number at epoch: 30991

The dashed part of the orbit path shows where the satellite is in the earth's shadow,  

DLR